This demonstration page uses our WeatherBlox Daily Observations layout. Learn more.

Left ArrowRight Arrow

Hourly Observations for March 18, 2021

Temp ( °F °C ) Dew Point ( °F °C ) Humidity (%) Winds ( mph kmh ) Pressure ( in mb ) Visibility ( mi km ) Precip ( " mm )
12:53 am 00:53 Cloudy with Mist and Fog 59 15 58 14.4 96 96 ESE 7 11 29.87 1012 6 10 0.00 0.00
1:06 am 01:06 Cloudy with Thunderstorms 59 15 58 14.4 96 96 VRB 7 11 29.86 1011 8 13 0.00 0.00
1:21 am 01:21 Cloudy with Nearby Thunderstorms 60 15.6 59 15 96 96 VRB 7 11 29.86 1011 7 11 0.01 0.25
1:45 am 01:45 Cloudy with Thunderstorms 60 15.6 59 15 96 96 SSE 8 13 29.87 1012 3 5 0.08 2.03
1:53 am 01:53 Cloudy with Thunderstorms 61 16.1 59 15 93 93 SSE 13 20 29.85 1011 5 8 0.10 2.54
1:59 am 01:59 Cloudy with Rain 63 17.2 60 15.6 90 90 SSE 13 20 29.84 1010 7 11 0.01 0.25
2:53 am 02:53 Cloudy with Light Rain 63 17.2 60 15.6 90 90 SSE 10 17 29.80 1009 7 11 0.05 1.27
3:53 am 03:53 Mostly Cloudy 63 17.2 60 15.6 90 90 S 8 13 29.76 1008 10 16 0.02 0.51
4:53 am 04:53 Mostly Cloudy 62 16.7 60 15.6 93 93 E 3 6 29.74 1007 10 16 0.00 0.00
5:17 am 05:17 Cloudy 62 16.7 60 15.6 93 93 SSW 3 6 29.75 1007 10 16 0.00 0.00
5:24 am 05:24 Cloudy 62 16.7 60 15.6 93 93 SSW 3 6 29.74 1007 10 16 0.00 0.00
5:53 am 05:53 Cloudy with Light Rain 63 17.2 60 15.6 90 90 SSE 6 9 29.72 1006 9 14 0.01 0.25
6:53 am 06:53 Cloudy with Light Rain 63 17.2 61 16.1 93 93 SSE 10 17 29.71 1006 7 11 0.07 1.78
7:04 am 07:04 Cloudy with Thunderstorms 63 17.2 61 16.1 93 93 SSE 12 19 29.71 1006 3 5 0.07 1.78
7:18 am 07:18 Cloudy with Light Rain 63 17.2 62 16.7 97 97 SSE 10 17 29.71 1006 7 11 0.10 2.54
7:53 am 07:53 Cloudy with Light Rain 63 17.2 62 16.7 97 97 S 8 13 29.70 1006 10 16 0.11 2.79
8:00 am 08:00 Cloudy with Light Rain 63 17.2 62 16.7 97 97 SSE 7 11 29.70 1006 5 8 0.00 0.00
8:11 am 08:11 Cloudy with Thunderstorms 64 17.8 62 16.7 93 93 S 8 13 29.70 1006 5 8 0.01 0.25
8:28 am 08:28 Cloudy with Nearby Thunderstorms 64 17.8 62 16.7 93 93 VRB 7 11 29.69 1005 5 8 0.01 0.25
8:37 am 08:37 Cloudy with Nearby Thunderstorms 64 17.8 62 16.7 93 93 SW 7 11 29.70 1006 5 8 0.01 0.25
8:48 am 08:48 Cloudy with Light Rain 64 18 63 17 94 94 SSW 6 9 29.69 1006 5 8 0.01 0.25
8:53 am 08:53 Cloudy 65 18.3 63 17.2 93 93 S 7 11 29.69 1005 10 16 0.01 0.25
9:14 am 09:14 Cloudy 65 18.3 63 17.2 93 93 SW 6 9 29.69 1006 10 16 0.00 0.00
9:22 am 09:22 Cloudy 65 18.3 63 17.2 93 93 W 5 7 29.69 1006 10 16 0.00 0.00
9:49 am 09:49 Cloudy 66 19 64 18 94 94 SW 7 11 29.69 1005 10 16 0.00 0.00
9:53 am 09:53 Cloudy 66 18.9 64 17.8 93 93 SW 7 11 29.70 1006 10 16 0.00 0.00
10:12 am 10:12 Cloudy 66 18.9 63 17.2 90 90 SW 9 15 29.69 1005 10 16 0.00 0.00
10:40 am 10:40 Cloudy 68 20 61 16.1 78 78 SW 9 15 29.69 1005 10 16 0.00 0.00
10:53 am 10:53 Cloudy 68 20 59 15 73 73 WSW 13 20 29.70 1006 10 16 0.00 0.00
11:17 am 11:17 Cloudy 66 18.9 57 13.9 73 73 W 12 19 29.70 1006 10 16 0.00 0.00
11:53 am 11:53 Cloudy 67 19.4 57 13.9 71 71 WSW 10 17 29.71 1006 10 16 0.00 0.00
12:53 pm 12:53 Mostly Cloudy 70 21.1 51 10.6 51 51 WSW 13 20 29.69 1005 10 16 0.00 0.00
1:00 pm 13:00 Mostly Sunny 71 21.7 49 9.4 46 46 WSW 15 24 29.68 1005 10 16 0.00 0.00
1:53 pm 13:53 Sunny 72 22.2 50 10 46 46 SW 16 26 29.66 1005 10 16 0.00 0.00
2:53 pm 14:53 Mostly Cloudy 71 21.7 47 8.3 42 42 WSW 15 24 29.65 1004 10 16 0.00 0.00
3:53 pm 15:53 Partly Cloudy 70 21.1 47 8.3 44 44 WSW 15 24 29.65 1004 10 16 0.00 0.00
4:53 pm 16:53 Partly Cloudy 68 20 44 6.7 42 42 W 16 26 29.67 1005 10 16 0.00 0.00
5:53 pm 17:53 Cloudy 62 16.7 45 7.2 54 54 W 20 31 29.72 1007 10 16 0.00 0.00
6:53 pm 18:53 Cloudy 58 14.4 41 5 53 53 W 16 26 29.76 1008 10 16 0.00 0.00
7:53 pm 19:53 Cloudy 57 13.9 41 5 55 55 W 14 22 29.78 1009 10 16 0.00 0.00
8:53 pm 20:53 Cloudy 54 12.2 42 5.6 64 64 W 18 30 29.81 1009 10 16 0.00 0.00
9:53 pm 21:53 Cloudy 53 11.7 42 5.6 66 66 WNW 18 30 29.83 1010 10 16 0.00 0.00
10:34 pm 22:34 Cloudy 50 10 41 5 71 71 WNW 21 33 29.87 1012 10 16 0.00 0.00
10:46 pm 22:46 Cloudy 50 10 40 4.4 68 68 WNW 15 24 29.88 1012 10 16 0.00 0.00
10:53 pm 22:53 Cloudy 50 10 40 4.4 68 68 WNW 9 15 29.86 1011 10 16 0.00 0.00
11:17 pm 23:17 Cloudy 50 10 40 4.4 68 68 WNW 12 19 29.89 1012 10 16 0.00 0.00
11:53 pm 23:53 Cloudy 49 9.4 40 4.4 71 71 WNW 17 28 29.88 1012 10 16 0.00 0.00

Powered by AerisWeather